Torna al catalogo

STARLINK-4632

AttivoComunicazioniSSO
NORAD 53679·PAYLOAD·🇺🇸 United States

Lanciato Aug 31, 2022 da Vandenberg Space Force Base

Loading…

Prossimi Passaggi (prossime 24 ore)

TLE

AggiornatoSource: CelesTrak SupGP

Epoca: Sep 15, 2026, 02:41 UTC

1 53679C 22105AH  26258.11229167  .00023826  00000+0  73952-3 0  2589
2 53679  97.2842 134.8643 0001753  96.0857 181.4520 15.33429913    16

Traccia STARLINK-4632 in tempo reale con AllMySat

Download on the App Store